datetime,flow
1975-10-01,0.0
1975-10-02,0.0
1975-10-03,0.0
1975-10-04,0.0
1975-10-05,0.0
1975-10-06,0.0
1975-10-07,0.0
1975-10-08,0.0
1975-10-09,0.0
1975-10-10,0.0
1975-10-11,0.0
1975-10-12,0.0
1975-10-13,0.0
1975-10-14,0.0
1975-10-15,0.0
1975-10-16,0.0
1975-10-17,0.0
1975-10-18,0.0
1975-10-19,0.0
1975-10-20,0.0
1975-10-21,0.0
1975-10-22,0.0
1975-10-23,0.0
1975-10-24,0.0
1975-10-25,0.0
1975-10-26,0.0
1975-10-27,0.0
1975-10-28,0.0
1975-10-29,0.0
1975-10-30,0.0
1975-10-31,0.0
1975-11-01,0.0
1975-11-02,0.0
1975-11-03,0.0
1975-11-04,0.0
1975-11-05,0.0
1975-11-06,0.0
1975-11-07,0.0
1975-11-08,0.0
1975-11-09,0.0
1975-11-10,0.0
1975-11-11,0.0
1975-11-12,0.0
1975-11-13,0.0
1975-11-14,0.0
1975-11-15,0.0
1975-11-16,0.0
1975-11-17,0.0
1975-11-18,0.0
1975-11-19,0.0
1975-11-20,0.0
1975-11-21,0.0
1975-11-22,0.0
1975-11-23,0.0
1975-11-24,0.0
1975-11-25,0.0
1975-11-26,0.0
1975-11-27,0.0
1975-11-28,0.0
1975-11-29,0.0
1975-11-30,0.0
1975-12-01,0.0
1975-12-02,0.0
1975-12-03,0.0
1975-12-04,0.0
1975-12-05,0.0
1975-12-06,0.0
1975-12-07,0.0
1975-12-08,0.0
1975-12-09,0.0
1975-12-10,0.0
1975-12-11,0.0
1975-12-12,0.0
1975-12-13,0.0
1975-12-14,0.0
1975-12-15,0.0
1975-12-16,0.0
1975-12-17,0.0
1975-12-18,0.0
1975-12-19,0.0
1975-12-20,0.0
1975-12-21,0.0
1975-12-22,0.0
1975-12-23,0.0
1975-12-24,0.0
1975-12-25,0.0
1975-12-26,0.0
1975-12-27,0.0
1975-12-28,0.0
1975-12-29,0.0
1975-12-30,0.0
1975-12-31,0.0
1976-01-01,0.0
1976-01-02,0.0
1976-01-03,0.0
1976-01-04,0.0
1976-01-05,0.0
1976-01-06,0.0
1976-01-07,0.0
1976-01-08,0.0
1976-01-09,0.0
1976-01-10,0.0
1976-01-11,0.0
1976-01-12,0.0
1976-01-13,0.0
1976-01-14,0.0
1976-01-15,0.0
1976-01-16,0.0
1976-01-17,0.0
1976-01-18,0.0
1976-01-19,0.0
1976-01-20,0.0
1976-01-21,0.0
1976-01-22,0.0
1976-01-23,0.0
1976-01-24,0.0
1976-01-25,0.0
1976-01-26,0.0
1976-01-27,0.0
1976-01-28,0.0
1976-01-29,0.0
1976-01-30,0.0
1976-01-31,0.0
1976-02-01,0.0
1976-02-02,0.0
1976-02-03,0.0
1976-02-04,0.0
1976-02-05,0.0
1976-02-06,0.0
1976-02-07,0.0
1976-02-08,0.0
1976-02-09,0.0
1976-02-10,0.0
1976-02-11,0.0
1976-02-12,0.0
1976-02-13,0.0
1976-02-14,0.0
1976-02-15,0.0
1976-02-16,0.0
1976-02-17,0.0
1976-02-18,0.0
1976-02-19,0.0
1976-02-20,0.0
1976-02-21,0.0
1976-02-22,0.0
1976-02-23,0.0
1976-02-24,0.0
1976-02-25,0.0
1976-02-26,0.0
1976-02-27,0.0
1976-02-28,0.0
1976-02-29,0.0
1976-03-01,30.25
1976-03-02,30.25
1976-03-03,30.25
1976-03-04,30.25
1976-03-05,30.25
1976-03-06,30.25
1976-03-07,30.25
1976-03-08,30.25
1976-03-09,30.25
1976-03-10,0.0
1976-03-11,0.0
1976-03-12,0.0
1976-03-13,0.0
1976-03-14,30.25
1976-03-15,30.25
1976-03-16,30.25
1976-03-17,83.69
1976-03-18,49.91
1976-03-19,51.42
1976-03-20,34.79
1976-03-21,34.79
1976-03-22,34.79
1976-03-23,34.79
1976-03-24,34.79
1976-03-25,34.79
1976-03-26,34.79
1976-03-27,51.42
1976-03-28,51.42
1976-03-29,51.42
1976-03-30,51.42
1976-03-31,51.42
1976-04-01,51.42
1976-04-02,68.57
1976-04-03,68.57
1976-04-04,53.44
1976-04-05,51.42
1976-04-06,36.3
1976-04-07,18.15
1976-04-08,23.19
1976-04-09,34.28
1976-04-10,57.98
1976-04-11,46.38
1976-04-12,48.4
1976-04-13,48.4
1976-04-14,50.42
1976-04-15,50.42
1976-04-16,86.21
1976-04-17,30.25
1976-04-18,0.0
1976-04-19,71.09
1976-04-20,48.4
1976-04-21,24.2
1976-04-22,32.27
1976-04-23,24.2
1976-04-24,0.0
1976-04-25,0.0
1976-04-26,100.83
1976-04-27,100.83
1976-04-28,48.4
1976-04-29,25.71
1976-04-30,0.0
1976-05-01,0.0
1976-05-02,0.0
1976-05-03,100.83
1976-05-04,30.25
1976-05-05,32.27
1976-05-06,24.2
1976-05-07,0.0
1976-05-08,0.0
1976-05-09,0.0
1976-05-10,39.32
1976-05-11,52.43
1976-05-12,100.83
1976-05-13,121.0
1976-05-14,100.83
1976-05-15,104.87
1976-05-16,0.0
1976-05-17,50.42
1976-05-18,58.48
1976-05-19,68.57
1976-05-20,68.57
1976-05-21,151.25
1976-05-22,0.0
1976-05-23,0.0
1976-05-24,157.3
1976-05-25,52.43
1976-05-26,88.73
1976-05-27,104.87
1976-05-28,104.87
1976-05-29,112.93
1976-05-30,0.0
1976-05-31,0.0
1976-06-01,157.3
1976-06-02,157.3
1976-06-03,151.25
1976-06-04,0.0
1976-06-05,0.0
1976-06-06,151.25
1976-06-07,169.4
1976-06-08,176.96
1976-06-09,81.17
1976-06-10,108.9
1976-06-11,108.9
1976-06-12,0.0
1976-06-13,0.0
1976-06-14,108.9
1976-06-15,161.33
1976-06-16,162.34
1976-06-17,162.34
1976-06-18,162.34
1976-06-19,162.34
1976-06-20,162.34
1976-06-21,162.34
1976-06-22,100.83
1976-06-23,0.0
1976-06-24,96.8
1976-06-25,149.23
1976-06-26,149.23
1976-06-27,0.0
1976-06-28,190.07
1976-06-29,190.07
1976-06-30,190.07
1976-07-01,190.07
1976-07-02,190.07
1976-07-03,190.07
1976-07-04,190.07
1976-07-05,190.07
1976-07-06,190.07
1976-07-07,190.07
1976-07-08,80.67
1976-07-09,133.6
1976-07-10,190.07
1976-07-11,190.07
1976-07-12,190.07
1976-07-13,190.07
1976-07-14,0.0
1976-07-15,190.07
1976-07-16,190.07
1976-07-17,190.07
1976-07-18,190.07
1976-07-19,0.0
1976-07-20,190.07
1976-07-21,108.9
1976-07-22,108.9
1976-07-23,104.87
1976-07-24,104.87
1976-07-25,104.87
1976-07-26,0.0
1976-07-27,104.87
1976-07-28,104.87
1976-07-29,104.87
1976-07-30,104.87
1976-07-31,104.87
1976-08-01,0.0
1976-08-02,104.87
1976-08-03,0.0
1976-08-04,0.0
1976-08-05,0.0
1976-08-06,104.87
1976-08-07,0.0
1976-08-08,104.87
1976-08-09,104.87
1976-08-10,104.87
1976-08-11,104.87
1976-08-12,104.87
1976-08-13,104.87
1976-08-14,0.0
1976-08-15,104.87
1976-08-16,104.87
1976-08-17,104.87
1976-08-18,104.87
1976-08-19,104.87
1976-08-20,149.23
1976-08-21,0.0
1976-08-22,0.0
1976-08-23,104.87
1976-08-24,104.87
1976-08-25,104.87
1976-08-26,104.87
1976-08-27,104.87
1976-08-28,0.0
1976-08-29,0.0
1976-08-30,104.87
1976-08-31,104.87
1976-09-01,104.87
1976-09-02,104.87
1976-09-03,104.87
1976-09-04,0.0
1976-09-05,104.87
1976-09-06,104.87
1976-09-07,104.87
1976-09-08,157.3
1976-09-09,157.3
1976-09-10,157.3
1976-09-11,0.0
1976-09-12,157.3
1976-09-13,104.87
1976-09-14,104.87
1976-09-15,104.87
1976-09-16,104.87
1976-09-17,104.87
1976-09-18,104.87
1976-09-19,0.0
1976-09-20,201.66
1976-09-21,157.3
1976-09-22,157.3
1976-09-23,157.3
1976-09-24,157.3
1976-09-25,0.0
1976-09-26,104.87
1976-09-27,0.0
1976-09-28,0.0
1976-09-29,0.0
1976-09-30,0.0
1976-10-01,0.0
1976-10-02,0.0
1976-10-03,0.0
1976-10-04,0.0
1976-10-05,201.66
1976-10-06,201.66
1976-10-07,201.66
1976-10-08,201.66
1976-10-09,0.0
1976-10-10,0.0
1976-10-11,0.0
1976-10-12,0.0
1976-10-13,0.0
1976-10-14,0.0
1976-10-15,0.0
1976-10-16,0.0
1976-10-17,0.0
1976-10-18,0.0
1976-10-19,0.0
1976-10-20,0.0
1976-10-21,0.0
1976-10-22,0.0
1976-10-23,0.0
1976-10-24,0.0
1976-10-25,0.0
1976-10-26,0.0
1976-10-27,0.0
1976-10-28,0.0
1976-10-29,0.0
1976-10-30,0.0
1976-10-31,0.0
1976-11-01,0.0
1976-11-02,0.0
1976-11-03,0.0
1976-11-04,0.0
1976-11-05,0.0
1976-11-06,0.0
1976-11-07,0.0
1976-11-08,0.0
1976-11-09,0.0
1976-11-10,0.0
1976-11-11,0.0
1976-11-12,0.0
1976-11-13,0.0
1976-11-14,0.0
1976-11-15,0.0
1976-11-16,0.0
1976-11-17,0.0
1976-11-18,0.0
1976-11-19,0.0
1976-11-20,0.0
1976-11-21,0.0
1976-11-22,0.0
1976-11-23,0.0
1976-11-24,0.0
1976-11-25,0.0
1976-11-26,0.0
1976-11-27,0.0
1976-11-28,0.0
1976-11-29,0.0
1976-11-30,0.0
1976-12-01,0.0
1976-12-02,0.0
1976-12-03,0.0
1976-12-04,0.0
1976-12-05,0.0
1976-12-06,0.0
1976-12-07,0.0
1976-12-08,0.0
1976-12-09,0.0
1976-12-10,0.0
1976-12-11,0.0
1976-12-12,0.0
1976-12-13,0.0
1976-12-14,0.0
1976-12-15,0.0
1976-12-16,0.0
1976-12-17,0.0
1976-12-18,0.0
1976-12-19,0.0
1976-12-20,0.0
1976-12-21,0.0
1976-12-22,0.0
1976-12-23,0.0
1976-12-24,0.0
1976-12-25,0.0
1976-12-26,0.0
1976-12-27,0.0
1976-12-28,0.0
1976-12-29,0.0
1976-12-30,0.0
1976-12-31,0.0
1977-01-01,0.0
1977-01-02,0.0
1977-01-03,0.0
1977-01-04,0.0
1977-01-05,0.0
1977-01-06,0.0
1977-01-07,0.0
1977-01-08,0.0
1977-01-09,0.0
1977-01-10,0.0
1977-01-11,0.0
1977-01-12,0.0
1977-01-13,0.0
1977-01-14,0.0
1977-01-15,0.0
1977-01-16,0.0
1977-01-17,0.0
1977-01-18,0.0
1977-01-19,0.0
1977-01-20,0.0
1977-01-21,0.0
1977-01-22,0.0
1977-01-23,0.0
1977-01-24,0.0
1977-01-25,0.0
1977-01-26,0.0
1977-01-27,0.0
1977-01-28,0.0
1977-01-29,0.0
1977-01-30,0.0
1977-01-31,0.0
1977-02-01,0.0
1977-02-02,0.0
1977-02-03,0.0
1977-02-04,0.0
1977-02-05,0.0
1977-02-06,0.0
1977-02-07,0.0
1977-02-08,0.0
1977-02-09,0.0
1977-02-10,0.0
1977-02-11,0.0
1977-02-12,0.0
1977-02-13,0.0
1977-02-14,0.0
1977-02-15,0.0
1977-02-16,0.0
1977-02-17,0.0
1977-02-18,0.0
1977-02-19,0.0
1977-02-20,0.0
1977-02-21,0.0
1977-02-22,0.0
1977-02-23,0.0
1977-02-24,0.0
1977-02-25,0.0
1977-02-26,0.0
1977-02-27,0.0
1977-02-28,0.0
1977-03-01,0.0
1977-03-02,0.0
1977-03-03,0.0
1977-03-04,0.0
1977-03-05,0.0
1977-03-06,0.0
1977-03-07,0.0
1977-03-08,0.0
1977-03-09,0.0
1977-03-10,0.0
1977-03-11,0.0
1977-03-12,0.0
1977-03-13,0.0
1977-03-14,0.0
1977-03-15,0.0
1977-03-16,0.0
1977-03-17,0.0
1977-03-18,0.0
1977-03-19,0.0
1977-03-20,0.0
1977-03-21,0.0
1977-03-22,0.0
1977-03-23,0.0
1977-03-24,0.0
1977-03-25,0.0
1977-03-26,0.0
1977-03-27,0.0
1977-03-28,0.0
1977-03-29,0.0
1977-03-30,0.0
1977-03-31,0.0
1977-04-01,0.0
1977-04-02,0.0
1977-04-03,0.0
1977-04-04,154.27
1977-04-05,0.0
1977-04-06,154.27
1977-04-07,0.0
1977-04-08,0.0
1977-04-09,0.0
1977-04-10,0.0
1977-04-11,0.0
1977-04-12,0.0
1977-04-13,154.27
1977-04-14,154.27
1977-04-15,0.0
1977-04-16,0.0
1977-04-17,0.0
1977-04-18,287.37
1977-04-19,131.08
1977-04-20,131.08
1977-04-21,0.0
1977-04-22,0.0
1977-04-23,0.0
1977-04-24,0.0
1977-04-25,0.0
1977-04-26,0.0
1977-04-27,0.0
1977-04-28,0.0
1977-04-29,121.0
1977-04-30,0.0
1977-05-01,0.0
1977-05-02,0.0
1977-05-03,0.0
1977-05-04,0.0
1977-05-05,376.1
1977-05-06,0.0
1977-05-07,0.0
1977-05-08,0.0
1977-05-09,151.25
1977-05-10,151.25
1977-05-11,151.25
1977-05-12,94.28
1977-05-13,0.0
1977-05-14,0.0
1977-05-15,0.0
1977-05-16,0.0
1977-05-17,141.16
1977-05-18,141.16
1977-05-19,270.73
1977-05-20,0.0
1977-05-21,0.0
1977-05-22,0.0
1977-05-23,117.47
1977-05-24,161.33
1977-05-25,161.33
1977-05-26,161.33
1977-05-27,0.0
1977-05-28,0.0
1977-05-29,0.0
1977-05-30,0.0
1977-05-31,151.25
1977-06-01,151.25
1977-06-02,151.25
1977-06-03,151.25
1977-06-04,0.0
1977-06-05,0.0
1977-06-06,295.44
1977-06-07,456.77
1977-06-08,161.33
1977-06-09,161.33
1977-06-10,0.0
1977-06-11,161.33
1977-06-12,161.33
1977-06-13,161.33
1977-06-14,161.33
1977-06-15,161.33
1977-06-16,0.0
1977-06-17,0.0
1977-06-18,161.33
1977-06-19,161.33
1977-06-20,161.33
1977-06-21,161.33
1977-06-22,0.0
1977-06-23,166.37
1977-06-24,110.92
1977-06-25,171.41
1977-06-26,171.41
1977-06-27,171.41
1977-06-28,114.44
1977-06-29,56.97
1977-06-30,161.33
1977-07-01,0.0
1977-07-02,0.0
1977-07-03,0.0
1977-07-04,0.0
1977-07-05,0.0
1977-07-06,0.0
1977-07-07,107.39
1977-07-08,161.33
1977-07-09,161.33
1977-07-10,161.33
1977-07-11,161.33
1977-07-12,80.67
1977-07-13,80.67
1977-07-14,161.33
1977-07-15,161.33
1977-07-16,161.33
1977-07-17,161.33
1977-07-18,0.0
1977-07-19,161.33
1977-07-20,161.33
1977-07-21,80.67
1977-07-22,0.0
1977-07-23,80.67
1977-07-24,161.33
1977-07-25,161.33
1977-07-26,161.33
1977-07-27,0.0
1977-07-28,161.33
1977-07-29,161.33
1977-07-30,161.33
1977-07-31,0.0
1977-08-01,161.33
1977-08-02,161.33
1977-08-03,161.33
1977-08-04,0.0
1977-08-05,107.39
1977-08-06,161.33
1977-08-07,161.33
1977-08-08,161.33
1977-08-09,161.33
1977-08-10,53.95
1977-08-11,107.39
1977-08-12,0.0
1977-08-13,0.0
1977-08-14,0.0
1977-08-15,0.0
1977-08-16,0.0
1977-08-17,161.33
1977-08-18,161.33
1977-08-19,161.33
1977-08-20,108.9
1977-08-21,161.33
1977-08-22,161.33
1977-08-23,161.33
1977-08-24,0.0
1977-08-25,0.0
1977-08-26,0.0
1977-08-27,161.33
1977-08-28,161.33
1977-08-29,161.33
1977-08-30,161.33
1977-08-31,161.33
1977-09-01,161.33
1977-09-02,161.33
1977-09-03,161.33
1977-09-04,161.33
1977-09-05,161.33
1977-09-06,0.0
1977-09-07,251.07
1977-09-08,107.39
1977-09-09,107.39
1977-09-10,161.33
1977-09-11,161.33
1977-09-12,161.33
1977-09-13,161.33
1977-09-14,0.0
1977-09-15,161.33
1977-09-16,161.33
1977-09-17,107.39
1977-09-18,161.33
1977-09-19,161.33
1977-09-20,0.0
1977-09-21,161.33
1977-09-22,161.33
1977-09-23,161.33
1977-09-24,134.11
1977-09-25,161.33
1977-09-26,161.33
1977-09-27,161.33
1977-09-28,0.0
1977-09-29,161.33
1977-09-30,161.33
1977-10-01,107.39
1977-10-02,161.33
1977-10-03,0.0
1977-10-04,107.39
1977-10-05,161.33
1977-10-06,0.0
1977-10-07,107.39
1977-10-08,0.0
1977-10-09,0.0
1977-10-10,0.0
1977-10-11,0.0
1977-10-12,0.0
1977-10-13,0.0
1977-10-14,0.0
1977-10-15,0.0
1977-10-16,0.0
1977-10-17,0.0
1977-10-18,0.0
1977-10-19,0.0
1977-10-20,0.0
1977-10-21,0.0
1977-10-22,0.0
1977-10-23,0.0
1977-10-24,0.0
1977-10-25,0.0
1977-10-26,0.0
1977-10-27,0.0
1977-10-28,0.0
1977-10-29,0.0
1977-10-30,0.0
1977-10-31,0.0
1977-11-01,0.0
1977-11-02,0.0
1977-11-03,0.0
1977-11-04,0.0
1977-11-05,0.0
1977-11-06,0.0
1977-11-07,0.0
1977-11-08,0.0
1977-11-09,0.0
1977-11-10,0.0
1977-11-11,0.0
1977-11-12,0.0
1977-11-13,0.0
1977-11-14,0.0
1977-11-15,0.0
1977-11-16,0.0
1977-11-17,0.0
1977-11-18,0.0
1977-11-19,0.0
1977-11-20,0.0
1977-11-21,0.0
1977-11-22,0.0
1977-11-23,0.0
1977-11-24,0.0
1977-11-25,0.0
1977-11-26,0.0
1977-11-27,0.0
1977-11-28,0.0
1977-11-29,0.0
1977-11-30,0.0
1977-12-01,0.0
1977-12-02,0.0
1977-12-03,0.0
1977-12-04,0.0
1977-12-05,0.0
1977-12-06,0.0
1977-12-07,0.0
1977-12-08,0.0
1977-12-09,0.0
1977-12-10,0.0
1977-12-11,0.0
1977-12-12,0.0
1977-12-13,0.0
1977-12-14,0.0
1977-12-15,0.0
1977-12-16,0.0
1977-12-17,0.0
1977-12-18,0.0
1977-12-19,0.0
1977-12-20,0.0
1977-12-21,0.0
1977-12-22,0.0
1977-12-23,0.0
1977-12-24,0.0
1977-12-25,0.0
1977-12-26,0.0
1977-12-27,0.0
1977-12-28,0.0
1977-12-29,0.0
1977-12-30,0.0
1977-12-31,0.0
1978-01-01,0.0
1978-01-02,0.0
1978-01-03,0.0
1978-01-04,0.0
1978-01-05,0.0
1978-01-06,0.0
1978-01-07,0.0
1978-01-08,0.0
1978-01-09,0.0
1978-01-10,0.0
1978-01-11,0.0
1978-01-12,0.0
1978-01-13,0.0
1978-01-14,0.0
1978-01-15,0.0
1978-01-16,0.0
1978-01-17,0.0
1978-01-18,0.0
1978-01-19,0.0
1978-01-20,0.0
1978-01-21,0.0
1978-01-22,0.0
1978-01-23,0.0
1978-01-24,0.0
1978-01-25,0.0
1978-01-26,0.0
1978-01-27,0.0
1978-01-28,0.0
1978-01-29,0.0
1978-01-30,0.0
1978-01-31,0.0
1978-02-01,0.0
1978-02-02,0.0
1978-02-03,0.0
1978-02-04,0.0
1978-02-05,0.0
1978-02-06,0.0
1978-02-07,0.0
1978-02-08,0.0
1978-02-09,0.0
1978-02-10,0.0
1978-02-11,0.0
1978-02-12,0.0
1978-02-13,0.0
1978-02-14,0.0
1978-02-15,0.0
1978-02-16,0.0
1978-02-17,0.0
1978-02-18,0.0
1978-02-19,0.0
1978-02-20,0.0
1978-02-21,0.0
1978-02-22,0.0
1978-02-23,0.0
1978-02-24,0.0
1978-02-25,0.0
1978-02-26,0.0
1978-02-27,0.0
1978-02-28,0.0
1978-03-01,0.0
1978-03-02,0.0
1978-03-03,0.0
1978-03-04,0.0
1978-03-05,0.0
1978-03-06,0.0
1978-03-07,0.0
1978-03-08,0.0
1978-03-09,0.0
1978-03-10,0.0
1978-03-11,0.0
1978-03-12,0.0
1978-03-13,0.0
1978-03-14,0.0
1978-03-15,0.0
1978-03-16,0.0
1978-03-17,0.0
1978-03-18,0.0
1978-03-19,0.0
1978-03-20,0.0
1978-03-21,48.4
1978-03-22,48.4
1978-03-23,48.4
1978-03-24,48.4
1978-03-25,0.0
1978-03-26,0.0
1978-03-27,0.0
1978-03-28,0.0
1978-03-29,48.4
1978-03-30,48.4
1978-03-31,85.71
1978-04-01,0.0
1978-04-02,0.0
1978-04-03,48.4
1978-04-04,48.4
1978-04-05,0.0
1978-04-06,48.4
1978-04-07,48.4
1978-04-08,0.0
1978-04-09,0.0
1978-04-10,48.4
1978-04-11,48.4
1978-04-12,48.9
1978-04-13,50.92
1978-04-14,128.06
1978-04-15,96.8
1978-04-16,0.0
1978-04-17,182.51
1978-04-18,182.0
1978-04-19,103.35
1978-04-20,99.32
1978-04-21,99.32
1978-04-22,0.0
1978-04-23,0.0
1978-04-24,96.8
1978-04-25,48.4
1978-04-26,147.21
1978-04-27,260.15
1978-04-28,147.21
1978-04-29,147.21
1978-04-30,147.21
1978-05-01,151.25
1978-05-02,76.13
1978-05-03,0.0
1978-05-04,0.0
1978-05-05,147.21
1978-05-06,0.0
1978-05-07,0.0
1978-05-08,0.0
1978-05-09,0.0
1978-05-10,229.9
1978-05-11,0.0
1978-05-12,48.4
1978-05-13,0.0
1978-05-14,0.0
1978-05-15,0.0
1978-05-16,152.26
1978-05-17,152.26
1978-05-18,152.26
1978-05-19,252.58
1978-05-20,0.0
1978-05-21,0.0
1978-05-22,0.0
1978-05-23,152.26
1978-05-24,152.26
1978-05-25,152.26
1978-05-26,152.26
1978-05-27,152.26
1978-05-28,152.26
1978-05-29,152.26
1978-05-30,152.26
1978-05-31,152.26
1978-06-01,196.62
1978-06-02,196.62
1978-06-03,179.98
1978-06-04,152.26
1978-06-05,152.26
1978-06-06,235.95
1978-06-07,235.95
1978-06-08,235.95
1978-06-09,56.47
1978-06-10,148.73
1978-06-11,148.73
1978-06-12,148.73
1978-06-13,225.36
1978-06-14,20.17
1978-06-15,204.69
1978-06-16,204.69
1978-06-17,204.69
1978-06-18,204.69
1978-06-19,204.69
1978-06-20,204.69
1978-06-21,204.69
1978-06-22,204.69
1978-06-23,204.69
1978-06-24,152.26
1978-06-25,152.26
1978-06-26,152.26
1978-06-27,152.26
1978-06-28,192.59
1978-06-29,192.59
1978-06-30,192.59
1978-07-01,192.59
1978-07-02,64.03
1978-07-03,0.0
1978-07-04,0.0
1978-07-05,0.0
1978-07-06,210.74
1978-07-07,210.74
1978-07-08,152.26
1978-07-09,152.26
1978-07-10,152.26
1978-07-11,55.96
1978-07-12,0.0
1978-07-13,111.42
1978-07-14,173.43
1978-07-15,173.43
1978-07-16,173.43
1978-07-17,173.43
1978-07-18,0.0
1978-07-19,0.0
1978-07-20,0.0
1978-07-21,174.94
1978-07-22,0.0
1978-07-23,0.0
1978-07-24,0.0
1978-07-25,176.96
1978-07-26,176.96
1978-07-27,176.96
1978-07-28,176.96
1978-07-29,176.96
1978-07-30,176.96
1978-07-31,176.96
1978-08-01,176.96
1978-08-02,0.0
1978-08-03,0.0
1978-08-04,182.51
1978-08-05,182.51
1978-08-06,182.51
1978-08-07,182.51
1978-08-08,182.51
1978-08-09,272.75
1978-08-10,230.4
1978-08-11,159.82
1978-08-12,159.82
1978-08-13,159.82
1978-08-14,159.82
1978-08-15,159.82
1978-08-16,159.82
1978-08-17,159.82
1978-08-18,159.82
1978-08-19,82.18
1978-08-20,0.0
1978-08-21,0.0
1978-08-22,8.57
1978-08-23,227.38
1978-08-24,227.38
1978-08-25,227.38
1978-08-26,157.8
1978-08-27,157.8
1978-08-28,157.8
1978-08-29,157.8
1978-08-30,52.43
1978-08-31,157.8
1978-09-01,157.8
1978-09-02,157.8
1978-09-03,157.8
1978-09-04,157.8
1978-09-05,157.8
1978-09-06,157.8
1978-09-07,157.8
1978-09-08,104.87
1978-09-09,156.29
1978-09-10,156.29
1978-09-11,156.29
1978-09-12,156.29
1978-09-13,260.15
1978-09-14,180.49
1978-09-15,157.8
1978-09-16,157.8
1978-09-17,157.8
1978-09-18,157.8
1978-09-19,157.8
1978-09-20,157.8
1978-09-21,157.8
1978-09-22,157.8
1978-09-23,157.8
1978-09-24,72.6
1978-09-25,157.8
1978-09-26,102.85
1978-09-27,154.27
1978-09-28,154.27
1978-09-29,106.38
1978-09-30,105.87
1978-10-01,180.49
1978-10-02,180.49
1978-10-03,180.49
1978-10-04,0.0
1978-10-05,186.54
1978-10-06,62.01
1978-10-07,0.0
1978-10-08,0.0
1978-10-09,0.0
1978-10-10,0.0
1978-10-11,178.47
1978-10-12,178.47
1978-10-13,178.47
1978-10-14,0.0
1978-10-15,178.47
1978-10-16,178.47
1978-10-17,59.49
1978-10-18,178.47
1978-10-19,59.49
1978-10-20,140.66
1978-10-21,0.0
1978-10-22,0.0
1978-10-23,0.0
1978-10-24,0.0
1978-10-25,0.0
1978-10-26,0.0
1978-10-27,0.0
1978-10-28,0.0
1978-10-29,0.0
1978-10-30,0.0
1978-10-31,0.0
1978-11-01,0.0
1978-11-02,0.0
1978-11-03,0.0
1978-11-04,0.0
1978-11-05,0.0
1978-11-06,0.0
1978-11-07,0.0
1978-11-08,0.0
1978-11-09,0.0
1978-11-10,0.0
1978-11-11,0.0
1978-11-12,0.0
1978-11-13,0.0
1978-11-14,0.0
1978-11-15,0.0
1978-11-16,0.0
1978-11-17,0.0
1978-11-18,0.0
1978-11-19,0.0
1978-11-20,0.0
1978-11-21,0.0
1978-11-22,0.0
1978-11-23,0.0
1978-11-24,0.0
1978-11-25,0.0
1978-11-26,0.0
1978-11-27,0.0
1978-11-28,0.0
1978-11-29,0.0
1978-11-30,0.0
1978-12-01,0.0
1978-12-02,0.0
1978-12-03,0.0
1978-12-04,0.0
1978-12-05,0.0
1978-12-06,0.0
1978-12-07,0.0
1978-12-08,0.0
1978-12-09,0.0
1978-12-10,0.0
1978-12-11,0.0
1978-12-12,0.0
1978-12-13,0.0
1978-12-14,0.0
1978-12-15,0.0
1978-12-16,0.0
1978-12-17,0.0
1978-12-18,0.0
1978-12-19,0.0
1978-12-20,0.0
1978-12-21,0.0
1978-12-22,0.0
1978-12-23,0.0
1978-12-24,0.0
1978-12-25,0.0
1978-12-26,0.0
1978-12-27,0.0
1978-12-28,0.0
1978-12-29,0.0
1978-12-30,0.0
1978-12-31,0.0
1979-01-01,0.0
1979-01-02,0.0
1979-01-03,0.0
1979-01-04,0.0
1979-01-05,0.0
1979-01-06,0.0
1979-01-07,0.0
1979-01-08,0.0
1979-01-09,0.0
1979-01-10,0.0
1979-01-11,0.0
1979-01-12,0.0
1979-01-13,0.0
1979-01-14,0.0
1979-01-15,0.0
1979-01-16,0.0
1979-01-17,0.0
1979-01-18,0.0
1979-01-19,0.0
1979-01-20,0.0
1979-01-21,0.0
1979-01-22,0.0
1979-01-23,0.0
1979-01-24,0.0
1979-01-25,0.0
1979-01-26,0.0
1979-01-27,0.0
1979-01-28,0.0
1979-01-29,0.0
1979-01-30,0.0
1979-01-31,0.0
1979-02-01,0.0
1979-02-02,0.0
1979-02-03,0.0
1979-02-04,0.0
1979-02-05,0.0
1979-02-06,0.0
1979-02-07,0.0
1979-02-08,0.0
1979-02-09,0.0
1979-02-10,0.0
1979-02-11,0.0
1979-02-12,0.0
1979-02-13,0.0
1979-02-14,0.0
1979-02-15,0.0
1979-02-16,0.0
1979-02-17,0.0
1979-02-18,0.0
1979-02-19,0.0
1979-02-20,0.0
1979-02-21,0.0
1979-02-22,0.0
1979-02-23,0.0
1979-02-24,0.0
1979-02-25,0.0
1979-02-26,0.0
1979-02-27,0.0
1979-02-28,0.0
1979-03-01,0.0
1979-03-02,0.0
1979-03-03,0.0
1979-03-04,0.0
1979-03-05,0.0
1979-03-06,0.0
1979-03-07,0.0
1979-03-08,0.0
1979-03-09,0.0
1979-03-10,0.0
1979-03-11,0.0
1979-03-12,0.0
1979-03-13,0.0
1979-03-14,0.0
1979-03-15,0.0
1979-03-16,0.0
1979-03-17,0.0
1979-03-18,0.0
1979-03-19,0.0
1979-03-20,0.0
1979-03-21,0.0
1979-03-22,0.0
1979-03-23,0.0
1979-03-24,0.0
1979-03-25,0.0
1979-03-26,0.0
1979-03-27,0.0
1979-03-28,0.0
1979-03-29,0.0
1979-03-30,0.0
1979-03-31,0.0
1979-04-01,0.0
1979-04-02,0.0
1979-04-03,0.0
1979-04-04,0.0
1979-04-05,165.36
1979-04-06,125.54
1979-04-07,0.0
1979-04-08,0.0
1979-04-09,0.0
1979-04-10,144.19
1979-04-11,150.74
1979-04-12,150.74
1979-04-13,50.42
1979-04-14,0.0
1979-04-15,0.0
1979-04-16,0.0
1979-04-17,0.0
1979-04-18,102.85
1979-04-19,154.27
1979-04-20,51.42
1979-04-21,102.85
1979-04-22,154.27
1979-04-23,154.27
1979-04-24,154.27
1979-04-25,0.0
1979-04-26,101.84
1979-04-27,152.26
1979-04-28,106.38
1979-04-29,153.26
1979-04-30,159.82
1979-05-01,159.82
1979-05-02,159.82
1979-05-03,159.82
1979-05-04,159.82
1979-05-05,143.18
1979-05-06,0.0
1979-05-07,0.0
1979-05-08,200.66
1979-05-09,200.66
1979-05-10,200.66
1979-05-11,200.66
1979-05-12,163.35
1979-05-13,163.35
1979-05-14,163.35
1979-05-15,163.35
1979-05-16,163.35
1979-05-17,120.49
1979-05-18,180.49
1979-05-19,180.49
1979-05-20,180.49
1979-05-21,180.49
1979-05-22,116.46
1979-05-23,174.94
1979-05-24,174.94
1979-05-25,174.94
1979-05-26,0.0
1979-05-27,200.66
1979-05-28,200.66
1979-05-29,200.66
1979-05-30,66.55
1979-05-31,182.51
1979-06-01,182.51
1979-06-02,204.18
1979-06-03,204.18
1979-06-04,204.18
1979-06-05,204.18
1979-06-06,204.18
1979-06-07,204.18
1979-06-08,68.06
1979-06-09,206.71
1979-06-10,0.0
1979-06-11,0.0
1979-06-12,206.71
1979-06-13,206.71
1979-06-14,206.71
1979-06-15,206.71
1979-06-16,0.0
1979-06-17,212.76
1979-06-18,212.76
1979-06-19,71.09
1979-06-20,212.76
1979-06-21,192.59
1979-06-22,192.59
1979-06-23,192.59
1979-06-24,192.59
1979-06-25,192.59
1979-06-26,192.59
1979-06-27,192.59
1979-06-28,192.59
1979-06-29,192.59
1979-06-30,192.59
1979-07-01,192.59
1979-07-02,192.59
1979-07-03,192.59
1979-07-04,192.59
1979-07-05,192.59
1979-07-06,192.59
1979-07-07,192.59
1979-07-08,192.59
1979-07-09,192.59
1979-07-10,192.59
1979-07-11,192.59
1979-07-12,192.59
1979-07-13,32.27
1979-07-14,206.71
1979-07-15,206.71
1979-07-16,206.71
1979-07-17,206.71
1979-07-18,206.71
1979-07-19,206.71
1979-07-20,300.98
1979-07-21,200.66
1979-07-22,200.66
1979-07-23,200.66
1979-07-24,200.66
1979-07-25,200.66
1979-07-26,200.66
1979-07-27,200.66
1979-07-28,225.86
1979-07-29,182.51
1979-07-30,182.51
1979-07-31,182.51
1979-08-01,325.18
1979-08-02,186.54
1979-08-03,223.34
1979-08-04,223.34
1979-08-05,223.34
1979-08-06,223.34
1979-08-07,291.91
1979-08-08,291.91
1979-08-09,255.61
1979-08-10,255.61
1979-08-11,255.61
1979-08-12,255.61
1979-08-13,255.61
1979-08-14,255.61
1979-08-15,206.71
1979-08-16,206.71
1979-08-17,167.38
1979-08-18,167.38
1979-08-19,167.38
1979-08-20,167.38
1979-08-21,212.76
1979-08-22,212.76
1979-08-23,212.76
1979-08-24,418.96
1979-08-25,208.72
1979-08-26,208.72
1979-08-27,208.72
1979-08-28,208.72
1979-08-29,208.72
1979-08-30,208.72
1979-08-31,161.84
1979-09-01,161.84
1979-09-02,161.84
1979-09-03,161.84
1979-09-04,161.84
1979-09-05,208.72
1979-09-06,289.89
1979-09-07,305.02
1979-09-08,305.02
1979-09-09,305.02
1979-09-10,305.02
1979-09-11,305.02
1979-09-12,305.02
1979-09-13,156.29
1979-09-14,156.29
1979-09-15,305.02
1979-09-16,305.02
1979-09-17,305.02
1979-09-18,305.02
1979-09-19,305.02
1979-09-20,305.02
1979-09-21,156.29
1979-09-22,252.58
1979-09-23,300.98
1979-09-24,341.82
1979-09-25,341.82
1979-09-26,341.82
1979-09-27,341.82
1979-09-28,341.82
1979-09-29,341.82
1979-09-30,341.82
1979-10-01,341.825226
1979-10-02,402.325266
1979-10-03,390.225258
1979-10-04,372.075246
1979-10-05,230.908486
1979-10-06,172.929281
1979-10-07,172.929281
1979-10-08,223.850148
1979-10-09,260.150172
1979-10-10,260.150172
1979-10-11,260.150172
1979-10-12,260.150172
1979-10-13,300.987699
1979-10-14,300.987699
1979-10-15,300.987699
1979-10-16,150.745933
1979-10-17,0.0